OE-11121 Weather Reports


time (UTC)temp
C
wind
direction
speed
KPH
gust
KPH
rain 1hr
cm
rain 24hr
cm
rain mn
cm
humidity
%
barometer
mb
20260903055533 14 313 1.6 4.8 0.00 0.00 0.00 81 1024.2
20260903054146 13 205 3.2 4.8 0.00 0.00 0.00 83 1024.3
20260903053534 13 170 1.6 6.4 0.00 0.00 0.00 86 1024.5
20260903052534 12 322 3.2 4.8 0.00 0.00 0.00 86 1024.4
20260903051147 12 257 4.8 6.4 0.00 0.00 0.00 85 1024.2
20260903050533 13 247 3.2 4.8 0.00 0.00 0.00 85 1024.0
20260903045534 12 239 4.8 8.0 0.00 0.00 0.00 87 1024.0
20260903044146 12 294 4.8 6.4 0.00 0.00 0.00 87 1023.9
20260903043533 13 313 4.8 6.4 0.00 0.00 0.00 87 1023.8
20260903042534 12 318 1.6 4.8 0.00 0.00 0.00 88 1023.9
20260903041146 12 237 1.6 3.2 0.00 0.00 0.00 88 1023.9
20260903040534 12 231 3.2 6.4 0.00 0.00 0.00 87 1023.9
20260903035534 12 250 4.8 6.4 0.00 0.00 0.00 88 1023.9
20260903034533 13 284 4.8 6.4 0.00 0.00 0.00 87 1023.7
20260903033533 13 265 3.2 4.8 0.00 0.00 0.00 86 1023.7
20260903032534 13 285 3.2 4.8 0.00 0.00 0.00 86 1023.6
20260903031147 13 247 3.2 4.8 0.00 0.00 0.00 86 1023.7
20260903030534 13 255 1.6 4.8 0.00 0.00 0.00 86 1023.7
20260903025534 13 277 1.6 3.2 0.00 0.00 0.00 86 1023.6
20260903024534 13 332 1.6 3.2 0.00 0.00 0.00 86 1023.6
20260903023534 13 156 1.6 4.8 0.00 0.00 0.00 84 1023.4
20260903022534 14 229 3.2 6.4 0.00 0.00 0.00 84 1023.2
20260903021146 14 289 3.2 6.4 0.00 0.00 0.00 85 1023.1
20260903020534 14 300 3.2 6.4 0.00 0.00 0.00 84 1023.3
20260903015534 14 237 3.2 6.4 0.00 0.00 0.00 83 1023.2
20260903014146 14 243 6.4 9.7 0.00 0.00 0.00 82 1023.0
20260903013532 15 288 4.8 6.4 0.00 0.00 0.00 81 1022.9
20260903012533 14 323 3.2 4.8 0.00 0.00 0.00 83 1023.0
20260903011147 15 204 1.6 3.2 0.00 0.00 0.00 80 1022.6
20260903010534 14 266 1.6 6.4 0.00 0.00 0.00 84 1022.7
20260903005534 15 286 1.6 4.8 0.00 0.00 0.00 80 1022.4
20260903004147 15 180 3.2 4.8 0.00 0.00 0.00 81 1022.4
20260903003534 15 59 1.6 4.8 0.00 0.00 0.00 78 1022.3
20260903002534 15 202 1.6 6.4 0.00 0.00 0.00 80 1022.4
20260903001546 15 175 4.8 8.0 0.00 0.00 0.00 80 1022.3
20260903000533 15 96 0.0 3.2 0.00 0.00 0.00 81 1022.3
20260902235533 15 229 1.6 3.2 0.00 0.00 0.00 82 1022.3
20260902234147 15 282 0.0 3.2 0.00 0.00 0.00 81 1022.2
20260902233533 15 320 1.6 4.8 0.00 0.00 0.00 81 1022.3
20260902232533 16 201 1.6 4.8 0.00 0.00 0.00 80 1022.1
20260902231534 16 302 1.6 6.4 0.00 0.00 0.00 78 1022.1
20260902230534 16 103 1.6 3.2 0.00 0.00 0.00 78 1021.9
20260902225534 16 165 4.8 6.4 0.00 0.00 0.00 78 1021.9
20260902224147 16 150 4.8 6.4 0.00 0.00 0.00 78 1021.9
20260902223534 16 162 3.2 4.8 0.00 0.00 0.00 78 1021.8
20260902222534 17 114 1.6 1.6 0.00 0.00 0.00 76 1021.6
20260902221147 17 13 1.6 6.4 0.00 0.00 0.00 77 1021.6
20260902220533 17 350 3.2 6.4 0.00 0.00 0.00 76 1021.4
20260902215534 17 178 3.2 3.2 0.00 0.00 0.00 78 1021.5
20260902214147 17 200 3.2 6.4 0.00 0.00 0.00 76 1021.3
20260902213533 17 230 1.6 4.8 0.00 0.00 0.00 77 1021.3
20260902211147 17 360 0.0 3.2 0.00 0.00 0.00 72 1021.0
20260902210534 17 95 1.6 3.2 0.00 0.00 0.00 74 1021.0
20260902205534 18 322 0.0 4.8 0.00 0.00 0.00 73 1020.9
20260902204148 18 333 1.6 4.8 0.00 0.00 0.00 73 1020.9
20260902203533 18 266 3.2 6.4 0.00 0.00 0.00 72 1020.7
20260902202534 18 195 0.0 4.8 0.00 0.00 0.00 71 1020.6
20260902201147 18 283 3.2 6.4 0.00 0.00 0.00 72 1020.6
20260902200534 18 269 3.2 6.4 0.00 0.00 0.00 68 1020.4
20260902195534 19 267 4.8 8.0 0.00 0.00 0.00 66 1020.3
20260902194147 19 228 4.8 9.7 0.00 0.00 0.00 70 1020.2
20260902193534 19 288 4.8 8.0 0.00 0.00 0.00 69 1020.1
20260902192533 20 264 4.8 9.7 0.00 0.00 0.00 64 1019.9
20260902191147 20 252 9.7 14.5 0.00 0.00 0.00 65 1019.7
20260902190533 20 268 8.0 12.9 0.00 0.00 0.00 63 1019.4
20260902185534 21 270 4.8 11.3 0.00 0.00 0.00 59 1019.1
20260902184147 21 312 4.8 14.5 0.00 0.00 0.00 57 1018.8
20260902183534 21 334 6.4 12.9 0.00 0.00 0.00 58 1018.7
20260902182534 22 14 4.8 17.7 0.00 0.00 0.00 51 1018.2
20260902181147 22 357 6.4 16.1 0.00 0.00 0.00 51 1018.1
20260902180534 22 339 4.8 12.9 0.00 0.00 0.00 51 1017.8
20260902175534 23 52 4.8 14.5 0.00 0.00 0.00 49 1017.7
20260902174147 23 88 6.4 22.5 0.00 0.00 0.00 49 1017.4
20260902173533 23 98 8.0 17.7 0.00 0.00 0.00 45 1017.1
20260902172534 23 97 14.5 32.2 0.00 0.00 0.00 45 1017.2
20260902171147 24 82 16.1 32.2 0.00 0.00 0.00 46 1016.8
20260902170534 24 99 20.9 33.8 0.00 0.00 0.00 45 1016.5
20260902165534 24 86 20.9 32.2 0.00 0.00 0.00 46 1016.4
20260902164147 25 81 20.9 40.2 0.00 0.00 0.00 45 1016.2
20260902163534 25 89 17.7 29.0 0.00 0.00 0.00 46 1016.1
20260902162534 25 91 20.9 32.2 0.00 0.00 0.00 46 1016.2
20260902161147 25 95 19.3 33.8 0.00 0.00 0.00 45 1016.1
20260902160533 25 95 19.3 35.4 0.00 0.00 0.00 44 1016.0
20260902155534 26 86 14.5 33.8 0.00 0.00 0.00 43 1015.8
20260902154147 26 78 9.7 24.1 0.00 0.00 0.00 41 1015.8
20260902153534 25 65 17.7 27.4 0.00 0.00 0.00 42 1015.9
20260902152533 25 59 17.7 25.7 0.00 0.00 0.00 41 1015.9
20260902151147 26 54 14.5 24.1 0.00 0.00 0.00 37 1015.9
20260902150534 26 67 8.0 17.7 0.00 0.00 0.00 38 1015.8
20260902145534 26 53 12.9 20.9 0.00 0.00 0.00 43 1015.7
20260902144147 26 52 12.9 24.1 0.00 0.00 0.00 40 1015.9
20260902143533 26 70 9.7 17.7 0.00 0.00 0.00 40 1016.0
20260902142534 26 56 9.7 19.3 0.00 0.00 0.00 38 1016.0
20260902141147 26 70 6.4 12.9 0.00 0.00 0.00 38 1015.9
20260902140534 26 97 6.4 16.1 0.00 0.00 0.00 37 1016.0
20260902135534 26 56 9.7 17.7 0.00 0.00 0.00 40 1016.2
20260902134145 26 44 8.0 17.7 0.00 0.00 0.00 42 1016.3
20260902133534 25 51 9.7 16.1 0.00 0.00 0.00 40 1016.5
20260902132534 25 57 9.7 16.1 0.00 0.00 0.00 43 1016.6
20260902131147 25 70 8.0 17.7 0.00 0.00 0.00 45 1016.6
20260902130534 25 41 6.4 16.1 0.00 0.00 0.00 44 1016.7
20260902125534 25 75 3.2 16.1 0.00 0.00 0.00 43 1016.9
20260902124146 25 51 6.4 14.5 0.00 0.00 0.00 42 1017.0
20260902123534 25 58 4.8 9.7 0.00 0.00 0.00 43 1017.2
20260902122534 25 59 3.2 12.9 0.00 0.00 0.00 42 1017.4
20260902121147 25 34 3.2 9.7 0.00 0.00 0.00 47 1017.5
20260902120533 24 83 1.6 9.7 0.00 0.00 0.00 45 1017.8
20260902115533 24 171 3.2 8.0 0.00 0.00 0.00 46 1017.9
20260902114147 24 119 1.6 8.0 0.00 0.00 0.00 49 1017.9
20260902113534 23 151 3.2 11.3 0.00 0.00 0.00 48 1018.1
20260902112534 23 164 3.2 8.0 0.00 0.00 0.00 50 1018.3
20260902111147 23 129 0.0 6.4 0.00 0.00 0.00 51 1018.7
20260902110534 22 161 1.6 6.4 0.00 0.00 0.00 51 1018.8
20260902105533 23 194 0.0 8.0 0.00 0.00 0.00 56 1018.9
20260902104147 22 171 1.6 9.7 0.00 0.00 0.00 52 1019.1
20260902103534 22 208 1.6 8.0 0.00 0.00 0.00 52 1019.4
20260902102533 22 247 1.6 6.4 0.00 0.00 0.00 53 1019.7
20260902101147 22 251 1.6 6.4 0.00 0.00 0.00 54 1019.8
20260902100534 21 329 3.2 8.0 0.00 0.00 0.00 54 1020.1
20260902095534 21 10 1.6 6.4 0.00 0.00 0.00 58 1020.3
20260902094147 21 331 3.2 6.4 0.00 0.00 0.00 57 1020.5
20260902093534 20 334 1.6 6.4 0.00 0.00 0.00 58 1020.7
20260902092533 20 347 1.6 6.4 0.00 0.00 0.00 58 1020.9
20260902091146 20 287 3.2 9.7 0.00 0.00 0.00 59 1021.1
20260902090534 19 287 6.4 12.9 0.00 0.00 0.00 62 1021.2
20260902084146 18 289 9.7 12.9 0.00 0.00 0.00 68 1021.6
20260902083534 18 290 9.7 17.7 0.00 0.00 0.00 66 1021.7
20260902082534 18 280 3.2 12.9 0.00 0.00 0.00 68 1021.8
20260902081146 17 244 3.2 6.4 0.00 0.00 0.00 68 1021.7
20260902080533 18 290 3.2 11.3 0.00 0.00 0.00 69 1021.8
20260902075534 17 294 1.6 6.4 0.00 0.00 0.00 70 1022.0
20260902074147 17 299 3.2 4.8 0.00 0.00 0.00 69 1021.9
20260902073533 17 309 3.2 8.0 0.00 0.00 0.00 72 1022.0
20260902072534 16 313 3.2 9.7 0.00 0.00 0.00 74 1022.5
20260902071347 16 283 1.6 4.8 0.00 0.00 0.00 73 1022.4
20260902070533 16 304 3.2 6.4 0.00 0.00 0.00 76 1022.7
20260902065533 15 314 4.8 11.3 0.00 0.00 0.00 77 1022.8
20260902064147 15 300 6.4 9.7 0.00 0.00 0.00 79 1023.1
20260902062534 14 289 3.2 6.4 0.00 0.00 0.00 81 1023.1
20260902061147 14 305 4.8 6.4 0.00 0.00 0.00 81 1023.1
20260902060534 15 322 1.6 3.2 0.00 0.00 0.00 80 1022.9